Location: Newark
(29.9790°N, 31.1340°E)
Time: 03:39:43
(UTC+00:00)

Vanguard 2 - All Passes

Search period start: 21 January 2020 00:00
Search period end: 31 January 2020 00:00
Orbit: 553 x 2938 km, 32.9° (Epoch: 19 January)

Date Brightness Start Highest point End Pass type
(mag) Time Alt. Az. Time Alt. Az. Time Alt. Az.
21 Jan - 06:12:50 10° S 06:21:50 18° SSE 06:29:02 10° ESE daylight
21 Jan - 08:20:23 10° SW 08:32:56 44° SSE 08:40:45 10° E daylight
21 Jan - 10:32:27 10° WSW 10:42:51 88° SSE 10:48:53 10° ENE daylight
21 Jan - 12:45:06 10° W 12:52:00 65° N 12:56:31 10° E daylight
21 Jan - 14:55:44 10° WNW 15:00:26 65° SSW 15:04:20 10° ESE daylight
21 Jan - 17:06:47 10° SW 17:08:11 11° SSW 17:09:37 10° S visible
22 Jan - 06:28:26 10° SSW 06:40:03 25° SSE 06:48:42 10° E daylight
22 Jan - 08:37:55 10° SW 08:51:01 56° SSE 08:58:53 10° E daylight
22 Jan - 10:50:46 10° W 11:00:53 81° NNW 11:06:47 10° ENE daylight
22 Jan - 13:03:22 10° WNW 13:10:02 69° N 13:14:29 10° E daylight
22 Jan - 15:13:53 10° W 15:18:15 42° SSW 15:22:00 10° SE daylight
23 Jan - 04:43:07 10° SSE 04:46:28 11° SE 04:49:39 10° SE daylight
23 Jan - 06:44:52 10° SSW 06:58:15 34° SSE 07:07:37 10° E daylight
23 Jan - 08:55:46 10° WSW 09:09:05 69° SSE 09:16:53 10° ENE daylight
23 Jan - 11:09:11 10° W 11:18:57 73° N 11:24:42 10° ENE daylight
23 Jan - 13:21:34 10° WNW 13:28:04 81° NNE 13:32:26 10° E daylight
23 Jan - 15:32:13 10° W 15:35:59 26° SSW 15:39:20 10° SSE daylight
24 Jan - 04:55:22 10° S 05:04:45 17° SE 05:12:49 10° ESE daylight
24 Jan - 07:01:49 10° SW 07:16:23 44° SSE 07:26:05 10° E daylight
24 Jan - 09:13:53 10° WSW 09:27:09 82° SSE 09:34:50 10° ENE daylight
24 Jan - 11:27:37 10° W 11:37:02 70° N 11:42:38 10° E daylight
24 Jan - 13:39:43 10° WNW 13:46:01 80° SSW 13:50:19 10° ESE daylight
24 Jan - 15:51:01 10° WSW 15:53:39 16° SW 15:56:06 10° S visible
25 Jan - 05:10:33 10° S 05:22:56 24° SE 05:32:57 10° E daylight
25 Jan - 07:19:11 10° SW 07:34:30 55° SSE 07:44:20 10° E daylight
25 Jan - 09:32:11 10° WSW 09:45:15 87° NNW 09:52:46 10° ENE daylight
25 Jan - 11:46:01 10° W 11:55:08 71° N 12:00:35 10° E daylight
25 Jan - 13:57:54 10° WNW 14:03:53 58° SSW 14:08:04 10° SE daylight
26 Jan - 05:26:42 10° SSW 05:41:02 33° SSE 05:52:08 10° E daylight
26 Jan - 07:36:53 10° SW 07:52:36 66° SSE 08:02:25 10° ENE daylight
26 Jan - 09:50:38 10° W 10:03:22 79° N 10:10:41 10° ENE daylight
26 Jan - 12:04:22 10° WNW 12:13:14 77° N 12:18:33 10° E daylight
26 Jan - 14:16:11 10° W 14:21:36 38° SSW 14:25:34 10° SE daylight
27 Jan - 03:38:55 10° S 03:47:18 15° SE 03:55:06 10° ESE visible
27 Jan - 05:43:27 10° SSW 05:59:08 42° SSE 06:10:48 10° E daylight
27 Jan - 07:54:53 10° WSW 08:10:42 78° SSE 08:20:25 10° ENE daylight
27 Jan - 10:09:08 10° W 10:21:31 75° N 10:28:38 10° E daylight
27 Jan - 12:22:39 10° WNW 12:31:16 89° N 12:36:28 10° ESE daylight
27 Jan - 14:34:40 10° W 14:39:13 25° SW 14:42:46 10° SSE daylight
28 Jan - 03:53:25 10° S 04:05:22 22° SE 04:16:05 10° E visible
28 Jan - 06:00:37 10° SW 06:17:13 52° SSE 06:29:10 10° E daylight
28 Jan - 08:13:06 10° WSW 08:28:50 88° SSE 08:38:23 10° ENE daylight
28 Jan - 10:27:40 10° W 10:39:41 74° N 10:46:36 10° E daylight
28 Jan - 12:40:55 10° WNW 12:49:12 74° SSW 12:54:17 10° ESE daylight
28 Jan - 14:53:44 10° WSW 14:56:44 15° SW 14:59:18 10° S daylight
29 Jan - 04:09:13 10° SSW 04:23:22 30° SE 04:35:43 10° E visible
29 Jan - 06:18:08 10° SW 06:35:18 63° SSE 06:47:21 10° ENE daylight
29 Jan - 08:31:29 10° WSW 08:47:01 84° NNW 08:56:21 10° ENE daylight
29 Jan - 10:46:08 10° W 10:57:51 77° N 11:04:35 10° E daylight
29 Jan - 12:59:11 10° WNW 13:07:01 55° SSW 13:11:56 10° SE daylight
30 Jan - 02:24:40 10° SSE 02:29:44 12° SE 02:34:47 10° ESE visible
30 Jan - 04:25:42 10° SSW 04:41:20 39° SE 04:54:40 10° E visible
30 Jan - 06:35:57 10° WSW 06:53:26 73° SSE 07:05:27 10° ENE daylight
30 Jan - 08:50:01 10° W 09:05:14 79° N 09:14:20 10° E daylight
30 Jan - 11:04:33 10° WNW 11:15:58 84° NNE 11:22:32 10° E daylight
30 Jan - 13:17:35 10° W 13:24:41 38° SW 13:29:21 10° SE daylight
